Weather History for Roswell, NM

Change the Weather History Date:

Thursday, February 14, 2013

  Actual Average Record
Temperature  
Mean Temperature 45 °F 46 °F  
Max Temperature 66 °F 61 °F 84 °F (1979)
Min Temperature 23 °F 31 °F -4 °F (1905)
Degree Days  
Heating Degree Days 20 19  
Month to date heating degree days 261 292  
Since 1 July heating degree days 2174 2458  
Cooling Degree Days 0 0  
Month to date cooling degree days 0 0  
Year to date cooling degree days 0 0  
Moisture  
Dew Point 14 °F    
Average Humidity 34    
Maximum Humidity 55    
Minimum Humidity 13    
Precipitation  
Precipitation 0.00 in 0.02 in 0.51 in (1962)
Month to date precipitation T 0.21  
Year to date precipitation 0.41 0.59  
Sea Level Pressure  
Sea Level Pressure 29.99 in    
Wind  
Wind Speed 6 mph (North)    
Max Wind Speed 20 mph    
Max Gust Speed 23 mph    
Visibility 10 miles    
Events      
T = Trace of Precipitation, MM = Missing Value Source: NWS Daily Summary

Daily Weather History Graph

Daily Weather History Graph

Search for Another Location

Airport:

Trip Planner

Search our weather history database for the weather conditions in past years. The results will help you decide how hot, cold, wet, or windy it might be!

Date:

Astronomy

Feb. 14, 2013 Rise Set
Actual Time 6:42 AM MST 5:42 PM MST
Civil Twilight 6:17 AM MST 6:07 PM MST
Nautical Twilight 5:48 AM MST 6:36 PM MST
Astronomical Twilight 5:19 AM MST 7:05 PM MST
Moon 9:03 AM MST (2/14) 10:28 PM MST (2/14)
Length of Visible Light 11h 50m
Length of Day
10h 59m
Waxing Crescent, 22% of the Moon is Illuminated
Feb 14
Waxing Crescent
Feb 17
First Quarter
Feb 25
Full
Mar 4
Last Quarter
Mar 11
New

Hourly Weather History & Observations

Time (MST) Temp. Windchill Dew Point Humidity Pressure Visibility Wind Dir Wind Speed Gust Speed Precip Events Conditions
12:51 AM 33.1 °F 28.7 °F 7.0 °F 34% 29.96 in 10.0 mi NNW 4.6 mph - N/A   Clear
2:51 AM 33.1 °F 30.0 °F 6.1 °F 32% 29.95 in 10.0 mi SW 3.5 mph - N/A   Clear
3:51 AM 30.0 °F - 5.0 °F 35% 29.95 in 10.0 mi Calm Calm - N/A   Clear
4:51 AM 30.9 °F - 6.1 °F 35% 29.96 in 10.0 mi Calm Calm - N/A   Clear
5:51 AM 23.0 °F 18.4 °F 3.9 °F 44% 30.01 in 10.0 mi SW 3.5 mph - N/A   Clear
6:51 AM 25.0 °F 20.7 °F 5.0 °F 43% 30.03 in 10.0 mi WNW 3.5 mph - N/A   Clear
7:51 AM 36.0 °F - 9.0 °F 33% 30.02 in 10.0 mi Calm Calm - N/A   Clear
8:51 AM 42.1 °F 39.2 °F 14.0 °F 32% 30.04 in 10.0 mi North 4.6 mph - N/A   Clear
9:51 AM 48.9 °F - 14.0 °F 25% 30.01 in 10.0 mi Calm Calm - N/A   Clear
10:51 AM 55.9 °F - 15.1 °F 20% 29.99 in 10.0 mi Calm Calm - N/A   Clear
11:51 AM 59.0 °F - 17.1 °F 20% 29.95 in 10.0 mi NE 11.5 mph - N/A   Clear
12:51 PM 62.1 °F - 15.1 °F 16% 29.89 in 10.0 mi North 6.9 mph 16.1 mph N/A   Clear
1:51 PM 64.9 °F - 12.9 °F 13% 29.87 in 10.0 mi North 16.1 mph - N/A   Clear
2:51 PM 64.9 °F - 15.1 °F 15% 29.87 in 10.0 mi North 11.5 mph - N/A   Clear
3:51 PM 63.0 °F - 16.0 °F 16% 29.89 in 10.0 mi ESE 8.1 mph - N/A   Clear
4:51 PM 61.0 °F - 16.0 °F 17% 29.90 in 10.0 mi East 6.9 mph - N/A   Clear
5:51 PM 55.0 °F - 18.0 °F 23% 29.95 in 10.0 mi NE 3.5 mph - N/A   Clear
6:51 PM 52.0 °F - 16.0 °F 24% 29.99 in 10.0 mi North 3.5 mph - N/A   Clear
7:51 PM 48.9 °F - 15.1 °F 26% 30.00 in 10.0 mi North 6.9 mph - N/A   Clear
8:51 PM 46.0 °F 40.6 °F 16.0 °F 30% 30.03 in 10.0 mi NNE 11.5 mph - N/A   Clear
9:51 PM 44.1 °F 37.1 °F 26.1 °F 49% 30.08 in 10.0 mi North 15.0 mph - N/A   Clear
10:51 PM 41.0 °F 33.5 °F 26.1 °F 55% 30.12 in 10.0 mi North 13.8 mph - N/A   Clear
11:51 PM 39.0 °F 32.3 °F 27.0 °F 62% 30.17 in 10.0 mi North 10.4 mph - N/A   Clear